GW5170 Weather Reports


time (UTC)temp
F
wind
direction
speed
knots
gust
knots
rain 1hr
in
rain 24hr
in
rain mn
in
humidity
%
barometer
mb
20260507195811 65 243 12.2 16.5 0.00 0.00 0.00 37 1010.9
20260507195309 66 255 7.0 8.7 0.00 0.00 0.00 36 1010.9
20260507194806 64 303 3.5 7.8 0.00 0.00 0.00 36 1010.9
20260507194302 64 242 7.0 9.6 0.00 0.00 0.00 37 1011.1
20260507193759 63 288 9.6 12.2 0.00 0.00 0.00 38 1011.3
20260507193256 63 239 7.8 8.7 0.00 0.00 0.00 39 1011.1
20260507192752 62 85 4.3 7.0 0.00 0.00 0.00 39 1011.5
20260507192249 64 263 8.7 9.6 0.00 0.00 0.00 37 1011.3
20260507191745 62 267 7.8 8.7 0.00 0.00 0.00 39 1011.2
20260507191242 63 344 5.2 6.1 0.00 0.00 0.00 39 1011.2
20260507190738 62 277 9.6 13.0 0.00 0.00 0.00 41 1011.1
20260507190237 62 263 5.2 8.7 0.00 0.00 0.00 38 1011.5
20260507185735 63 278 3.5 3.5 0.00 0.00 0.00 33 1011.3
20260507185232 63 332 2.6 3.5 0.00 0.00 0.00 32 1011.3
20260507184729 63 196 9.6 11.3 0.00 0.00 0.00 32 1011.4
20260507184227 63 207 5.2 7.8 0.00 0.00 0.00 34 1011.3
20260507183723 62 326 3.5 5.2 0.00 0.00 0.00 36 1011.4
20260507183220 63 306 5.2 7.0 0.00 0.00 0.00 35 1011.3
20260507182718 62 10 3.5 5.2 0.00 0.00 0.00 36 1011.5
20260507182213 62 326 7.0 7.8 0.00 0.00 0.00 35 1011.4
20260507181710 62 305 5.2 6.1 0.00 0.00 0.00 37 1011.4
20260507181206 62 250 4.3 6.1 0.00 0.00 0.00 38 1011.6
20260507180702 62 323 7.8 12.2 0.00 0.00 0.00 37 1011.7
20260507180200 60 276 6.1 7.0 0.00 0.00 0.00 39 1011.7
20260507175655 60 241 10.4 13.0 0.00 0.00 0.00 40 1011.7
20260507175153 60 291 6.1 8.7 0.00 0.00 0.00 42 1012.0
20260507174650 61 281 8.7 11.3 0.00 0.00 0.00 42 1012.2
20260507174148 61 284 7.8 11.3 0.00 0.00 0.00 41 1012.0
20260507173644 61 240 4.3 5.2 0.00 0.00 0.00 41 1012.1
20260507173141 60 260 8.7 11.3 0.00 0.00 0.00 44 1012.3
20260507172637 60 250 8.7 11.3 0.00 0.00 0.00 45 1012.2
20260507172135 60 269 5.2 7.0 0.00 0.00 0.00 45 1012.1
20260507171635 61 239 16.5 20.9 0.00 0.00 0.00 45 1012.2
20260507171133 59 285 11.3 15.6 0.00 0.00 0.00 47 1012.5
20260507170630 60 253 7.0 8.7 0.00 0.00 0.00 43 1012.4
20260507170127 60 252 10.4 13.0 0.00 0.00 0.00 43 1012.2
20260507165622 61 278 7.8 9.6 0.00 0.00 0.00 44 1012.3
20260507165119 59 251 9.6 13.0 0.00 0.00 0.00 45 1012.5
20260507164614 60 299 6.1 7.0 0.00 0.00 0.00 44 1012.6
20260507164111 59 258 5.2 9.6 0.00 0.00 0.00 45 1012.8
20260507163609 58 250 4.3 7.0 0.00 0.00 0.00 47 1012.8
20260507163107 58 242 4.3 6.1 0.00 0.00 0.00 47 1012.8
20260507162607 59 314 5.2 7.0 0.00 0.00 0.00 46 1013.0
20260507162105 57 271 4.3 5.2 0.00 0.00 0.00 49 1013.0
20260507161600 58 277 7.8 9.6 0.00 0.00 0.00 49 1013.1
20260507161057 58 269 5.2 7.0 0.00 0.00 0.00 48 1013.1
20260507160554 58 288 5.2 7.8 0.00 0.00 0.00 48 1013.2
20260507160050 57 270 3.5 5.2 0.00 0.00 0.00 47 1013.3
20260507155545 57 344 5.2 7.0 0.00 0.00 0.00 48 1013.2
20260507155043 57 269 5.2 8.7 0.00 0.00 0.00 49 1013.3
20260507154540 57 261 7.0 9.6 0.00 0.00 0.00 47 1013.1
20260507154037 56 222 7.0 11.3 0.00 0.00 0.00 48 1013.2
20260507153534 56 276 1.7 2.6 0.00 0.00 0.00 47 1013.1
20260507153030 57 325 1.7 1.7 0.00 0.00 0.00 47 1013.5
20260507152525 56 287 7.0 9.6 0.00 0.00 0.00 46 1013.3
20260507152022 56 219 7.8 8.7 0.00 0.00 0.00 46 1013.4
20260507151518 56 268 3.5 7.0 0.00 0.00 0.00 45 1013.4
20260507151015 55 281 7.8 9.6 0.00 0.00 0.00 45 1013.6
20260507150512 55 325 5.2 7.0 0.00 0.00 0.00 45 1013.7
20260507150009 55 223 5.2 7.8 0.00 0.00 0.00 45 1013.6
20260507145504 54 295 4.3 7.0 0.00 0.00 0.00 45 1013.7
20260507145002 53 208 5.2 7.0 0.00 0.00 0.00 45 1013.9
20260507144458 53 200 5.2 6.1 0.00 0.00 0.00 45 1013.7
20260507143955 52 265 6.1 7.8 0.00 0.00 0.00 47 1014.4
20260507143453 53 308 0.9 1.7 0.00 0.00 0.00 49 1014.1
20260507142949 53 289 2.6 2.6 0.00 0.00 0.00 48 1014.2
20260507142445 52 271 2.6 2.6 0.00 0.00 0.00 49 1014.0
20260507141943 52 294 0.0 0.9 0.00 0.00 0.00 49 1014.3
20260507141438 51 284 1.7 1.7 0.00 0.00 0.00 51 1014.6
20260507140935 51 192 3.5 5.2 0.00 0.00 0.00 50 1014.5
20260507140432 52 248 2.6 2.6 0.00 0.00 0.00 50 1014.4
20260507135930 49 270 1.7 2.6 0.00 0.00 0.00 53 1014.7
20260507135426 49 297 1.7 1.7 0.00 0.00 0.00 55 1014.6
20260507134924 49 138 1.7 2.6 0.00 0.00 0.00 56 1014.7
20260507134420 48 161 1.7 1.7 0.00 0.00 0.00 59 1014.6
20260507133916 47 317 0.9 0.9 0.00 0.00 0.00 59 1014.8
20260507133412 44 0 0.9 0.9 0.00 0.00 0.00 64 1014.7
20260507132911 43 329 0.9 0.9 0.00 0.00 0.00 66 1014.8
20260507132407 43 49 2.6 2.6 0.00 0.00 0.00 67 1014.8
20260507131905 42 7 0.9 0.9 0.00 0.00 0.00 69 1015.0
20260507131400 41 112 1.7 1.7 0.00 0.00 0.00 71 1014.9
20260507130857 40 90 1.7 2.6 0.00 0.00 0.00 73 1014.9
20260507130354 39 31 0.9 0.9 0.00 0.00 0.00 73 1015.1
20260507125853 38 49 1.7 1.7 0.00 0.00 0.00 76 1015.2
20260507125350 38 85 2.6 2.6 0.00 0.00 0.00 77 1015.3
20260507124848 37 336 0.0 0.9 0.00 0.00 0.00 78 1015.3
20260507124344 37 39 0.9 1.7 0.00 0.00 0.00 79 1015.5
20260507123843 37 39 1.7 1.7 0.00 0.00 0.00 80 1015.3
20260507123339 36 1 0.9 1.7 0.00 0.00 0.00 81 1015.2
20260507122835 36 214 1.7 1.7 0.00 0.00 0.00 81 1015.3
20260507122331 36 0 0.9 1.7 0.00 0.00 0.00 80 1015.3
20260507121828 36 355 0.9 0.9 0.00 0.00 0.00 81 1014.9
20260507121323 35 58 2.6 3.5 0.00 0.00 0.00 81 1015.2
20260507120820 35 44 0.9 1.7 0.00 0.00 0.00 81 1015.3
20260507120316 35 79 2.6 2.6 0.00 0.00 0.00 80 1015.2
20260507115812 35 147 1.7 1.7 0.00 0.00 0.00 80 1015.2
20260507115308 34 17 0.9 0.9 0.00 0.00 0.00 81 1015.5
20260507114804 34 48 1.7 1.7 0.00 0.00 0.00 83 1015.5
20260507114301 33 24 1.7 1.7 0.00 0.00 0.00 84 1015.4
20260507113759 33 10 0.9 0.9 0.00 0.00 0.00 85 1015.3
20260507113255 33 344 0.0 0.0 0.00 0.00 0.00 87 1015.5
20260507112753 33 351 0.9 0.9 0.00 0.00 0.00 86 1015.6
20260507112250 33 340 0.9 0.9 0.00 0.00 0.00 86 1015.5
20260507111748 33 347 0.9 0.9 0.00 0.00 0.00 85 1015.4
20260507111244 32 337 0.0 0.0 0.00 0.00 0.00 87 1015.4
20260507110740 32 335 0.0 0.0 0.00 0.00 0.00 89 1015.4
20260507110237 32 331 0.0 0.0 0.00 0.00 0.00 90 1015.4
20260507105734 31 329 0.0 0.0 0.00 0.00 0.00 90 1015.4
20260507105230 31 339 0.0 0.0 0.00 0.00 0.00 90 1015.6
20260507104727 31 339 0.0 0.9 0.00 0.00 0.00 90 1015.5
20260507104224 31 345 0.0 0.9 0.00 0.00 0.00 90 1015.4
20260507103720 31 343 0.0 0.0 0.00 0.00 0.00 90 1015.6
20260507103216 31 344 0.0 0.0 0.00 0.00 0.00 89 1015.6
20260507102713 32 342 0.0 0.0 0.00 0.00 0.00 89 1015.5
20260507102209 32 337 0.0 0.0 0.00 0.00 0.00 88 1015.7
20260507101705 32 332 0.0 0.0 0.00 0.00 0.00 87 1015.8
20260507101201 32 347 0.9 0.9 0.00 0.00 0.00 86 1015.7
20260507100658 32 332 0.9 0.9 0.00 0.00 0.00 86 1015.8
20260507100157 31 332 0.0 0.0 0.00 0.00 0.00 86 1015.7
20260507095654 32 333 0.0 0.0 0.00 0.00 0.00 86 1015.6
20260507095151 32 335 0.0 0.0 0.00 0.00 0.00 85 1015.7
20260507094647 32 27 0.9 0.9 0.00 0.00 0.00 84 1015.5
20260507094144 32 339 0.0 0.0 0.00 0.00 0.00 84 1015.9
20260507093641 32 338 0.0 0.0 0.00 0.00 0.00 84 1015.9
20260507093141 32 334 0.0 0.0 0.00 0.00 0.00 84 1015.9
20260507092636 32 334 0.0 0.0 0.00 0.00 0.00 83 1015.9
20260507092133 32 330 0.0 0.0 0.00 0.00 0.00 83 1015.9
20260507091629 32 337 0.0 0.0 0.00 0.00 0.00 83 1015.9
20260507091125 32 341 0.0 0.0 0.00 0.00 0.00 83 1016.0
20260507090621 32 341 0.0 0.0 0.00 0.00 0.00 83 1016.0
20260507090119 32 341 0.0 0.0 0.00 0.00 0.00 82 1015.9
20260507085616 33 349 0.0 0.9 0.00 0.00 0.00 81 1015.9
20260507085112 33 344 0.0 0.0 0.00 0.00 0.00 81 1016.0
20260507084609 33 341 0.0 0.0 0.00 0.00 0.00 81 1016.1
20260507084106 33 342 0.0 0.0 0.00 0.00 0.00 80 1016.3
20260507083603 33 342 0.0 0.0 0.00 0.00 0.00 80 1016.2
20260507083100 33 341 0.0 0.9 0.00 0.00 0.00 80 1016.3
20260507082555 33 338 0.0 0.0 0.00 0.00 0.00 80 1016.3
20260507082052 33 332 0.0 0.0 0.00 0.00 0.00 81 1016.4
20260507081548 33 329 0.0 0.0 0.00 0.00 0.00 80 1016.2
20260507081045 34 328 0.0 0.0 0.00 0.00 0.00 79 1016.4
20260507080541 34 337 0.0 0.0 0.00 0.00 0.00 77 1016.3
20260507080038 34 317 0.0 0.0 0.00 0.00 0.00 72 1016.5
20260507075533 35 319 0.0 0.0 0.00 0.00 0.00 73 1016.6
20260507075030 35 299 0.9 0.9 0.00 0.00 0.00 71 1016.5
20260507074526 35 296 0.9 0.9 0.00 0.00 0.00 72 1016.7
20260507074025 34 290 0.9 1.7 0.00 0.00 0.00 74 1016.7
20260507073521 34 342 0.0 0.0 0.00 0.00 0.00 83 1016.5
20260507073017 33 341 0.0 0.0 0.00 0.00 0.00 84 1016.7
20260507072515 34 341 0.0 0.0 0.00 0.00 0.00 83 1016.7
20260507072012 34 341 0.0 0.0 0.00 0.00 0.00 84 1017.0
20260507071509 34 342 0.0 0.0 0.00 0.00 0.00 84 1017.0
20260507071006 34 342 0.0 0.0 0.00 0.00 0.00 84 1016.8
20260507070503 34 342 0.0 0.0 0.00 0.00 0.00 85 1017.0
20260507070000 35 342 0.0 0.0 0.00 0.00 0.00 85 1017.1
20260507065456 34 342 0.0 0.9 0.00 0.00 0.00 86 1016.9
20260507064953 34 342 0.0 0.0 0.00 0.00 0.00 87 1016.9
20260507064452 35 342 0.0 0.0 0.00 0.00 0.00 87 1016.9
20260507063949 35 341 0.0 0.0 0.00 0.00 0.00 87 1017.1
20260507063446 35 341 0.0 0.0 0.00 0.00 0.00 87 1017.2
20260507062943 35 341 0.0 0.0 0.00 0.00 0.00 87 1017.1
20260507062440 35 341 0.0 0.0 0.00 0.00 0.00 86 1017.3
20260507061937 35 341 0.0 0.0 0.00 0.00 0.00 85 1017.2
20260507061435 36 340 0.0 0.9 0.00 0.00 0.00 84 1017.3
20260507060934 36 340 0.0 0.9 0.00 0.00 0.00 83 1017.3
20260507060430 36 340 0.0 0.0 0.00 0.00 0.00 83 1017.1
20260507055927 35 339 0.0 0.9 0.00 0.00 0.00 84 1017.3
20260507055422 35 340 0.0 0.0 0.00 0.00 0.00 84 1017.4
20260507054919 35 340 0.0 0.0 0.00 0.00 0.00 83 1017.4
20260507054415 36 340 0.0 0.0 0.00 0.00 0.00 82 1017.7
20260507053913 36 340 0.0 0.0 0.00 0.00 0.00 83 1017.5
20260507053410 36 339 0.0 0.0 0.00 0.00 0.00 83 1017.5
20260507052909 36 339 0.0 0.0 0.00 0.00 0.00 82 1017.6
20260507052406 36 339 0.0 0.0 0.00 0.00 0.00 82 1017.5
20260507051903 36 339 0.0 0.0 0.00 0.00 0.00 82 1017.5
20260507051400 37 340 0.0 0.0 0.00 0.00 0.00 81 1017.4
20260507050857 37 340 0.0 0.0 0.00 0.00 0.00 80 1017.3
20260507050354 37 340 0.0 0.9 0.00 0.00 0.00 80 1017.3
20260507045850 37 340 0.0 0.9 0.00 0.00 0.00 79 1017.4
20260507045347 37 342 0.9 0.9 0.00 0.00 0.00 80 1017.4
20260507044844 38 336 0.0 0.0 0.00 0.00 0.00 79 1017.3
20260507044341 38 337 0.0 0.9 0.00 0.00 0.00 79 1017.3
20260507043837 38 337 0.0 0.0 0.00 0.00 0.00 77 1017.2
20260507043334 38 334 0.0 0.9 0.00 0.00 0.00 75 1017.1
20260507042830 39 335 0.0 0.9 0.00 0.00 0.00 75 1017.1
20260507042325 39 334 0.0 0.0 0.00 0.00 0.00 74 1017.1
20260507041823 39 332 0.0 0.0 0.00 0.00 0.00 72 1017.2
20260507041319 40 333 0.0 0.0 0.00 0.00 0.00 70 1017.1
20260507040816 40 338 0.0 0.9 0.00 0.00 0.00 71 1017.3
20260507040312 39 337 0.0 0.0 0.00 0.00 0.00 73 1017.3
20260507035808 40 338 0.0 0.0 0.00 0.00 0.00 72 1017.4
20260507035306 40 340 0.0 0.0 0.00 0.00 0.00 71 1017.3
20260507034802 40 342 0.9 0.9 0.00 0.00 0.00 70 1017.4
20260507034258 40 341 0.9 0.9 0.00 0.00 0.00 68 1017.4
20260507033757 41 341 0.0 0.0 0.00 0.00 0.00 67 1017.6
20260507033254 41 341 0.0 0.0 0.00 0.00 0.00 66 1017.4
20260507032751 42 341 0.0 0.0 0.00 0.00 0.00 65 1017.6
20260507032247 42 342 0.0 0.0 0.00 0.00 0.00 64 1017.5
20260507031743 42 343 0.0 0.0 0.00 0.00 0.00 64 1017.6
20260507031240 42 344 0.9 0.9 0.00 0.00 0.00 63 1017.5
20260507030737 43 330 0.0 0.0 0.00 0.00 0.00 60 1017.5
20260507030235 43 344 0.9 0.9 0.00 0.00 0.00 58 1017.3
20260507025732 44 343 0.0 0.9 0.00 0.00 0.00 56 1017.5
20260507025229 44 336 0.0 0.9 0.00 0.00 0.00 55 1017.4
20260507024727 44 336 0.0 0.0 0.00 0.00 0.00 54 1017.5
20260507024224 44 332 0.0 0.0 0.00 0.00 0.00 53 1017.5
20260507023719 45 332 0.0 0.0 0.00 0.00 0.00 52 1017.4
20260507023216 45 332 0.0 0.9 0.00 0.00 0.00 50 1017.3
20260507022714 45 329 0.0 0.0 0.00 0.00 0.00 49 1017.3
20260507022209 46 337 0.0 0.9 0.00 0.00 0.00 48 1017.3
20260507021706 46 334 0.9 0.9 0.00 0.00 0.00 48 1017.2
20260507021201 46 336 0.9 0.9 0.00 0.00 0.00 48 1017.2
20260507020700 47 324 1.7 1.7 0.00 0.00 0.00 46 1017.2
20260507020156 47 330 0.9 1.7 0.00 0.00 0.00 45 1016.9
20260507015654 48 309 2.6 2.6 0.00 0.00 0.00 44 1017.0
20260507015151 48 311 1.7 1.7 0.00 0.00 0.00 44 1017.0
20260507014647 48 310 3.5 3.5 0.00 0.00 0.00 43 1016.9
20260507014143 48 296 3.5 3.5 0.00 0.00 0.00 43 1017.0
20260507013641 48 323 3.5 5.2 0.00 0.00 0.00 43 1016.9
20260507013138 48 309 2.6 2.6 0.00 0.00 0.00 43 1016.8
20260507012635 49 317 3.5 3.5 0.00 0.00 0.00 42 1016.9
20260507012130 49 300 3.5 3.5 0.00 0.00 0.00 42 1016.6
20260507011629 49 332 4.3 5.2 0.00 0.00 0.00 41 1016.7
20260507011125 49 315 5.2 6.1 0.00 0.00 0.00 41 1016.7
20260507010620 50 262 6.1 7.8 0.00 0.00 0.00 40 1016.9
20260507010116 50 309 2.6 2.6 0.00 0.00 0.00 39 1016.7
20260507005613 50 337 2.6 2.6 0.00 0.00 0.00 40 1016.7
20260507005109 50 319 4.3 6.1 0.00 0.00 0.00 39 1016.7
20260507004606 51 324 7.8 9.6 0.00 0.00 0.00 38 1016.8
20260507004104 51 298 6.1 7.0 0.00 0.00 0.00 39 1016.7
20260507003600 51 290 10.4 13.0 0.00 0.00 0.00 38 1016.9
20260507003055 51 352 6.1 7.0 0.00 0.00 0.00 38 1016.7
20260507002552 52 311 4.3 5.2 0.00 0.00 0.00 38 1016.8
20260507002047 52 289 7.0 8.7 0.00 0.00 0.00 37 1017.0
20260507001544 52 280 5.2 7.0 0.00 0.00 0.00 37 1016.7
20260507001042 52 350 5.2 7.8 0.00 0.00 0.00 38 1016.7
20260507000538 52 297 2.6 6.1 0.00 0.00 0.00 38 1016.7
20260507000033 52 15 2.6 3.5 0.00 0.00 0.00 38 1016.7
20260506235531 52 323 5.2 7.0 0.00 0.00 0.00 37 1016.6
20260506235027 52 306 7.0 9.6 0.00 0.00 0.00 37 1016.7
20260506234525 52 325 7.8 9.6 0.00 0.00 0.00 38 1016.7
20260506234021 52 323 7.8 8.7 0.00 0.00 0.00 37 1016.7
20260506233518 52 247 4.3 7.0 0.00 0.00 0.00 37 1016.4
20260506233015 53 322 9.6 11.3 0.00 0.00 0.00 37 1016.6
20260506232511 52 319 9.6 13.0 0.00 0.00 0.00 37 1016.6
20260506232006 51 297 7.8 8.7 0.00 0.00 0.00 38 1016.8
20260506231504 52 283 10.4 13.0 0.00 0.00 0.00 38 1016.4
20260506231002 53 324 11.3 13.0 0.00 0.00 0.00 37 1016.8
20260506230458 52 312 3.5 5.2 0.00 0.00 0.00 38 1016.7
20260506225954 52 342 3.5 5.2 0.00 0.00 0.00 38 1016.7
20260506225452 52 288 8.7 9.6 0.00 0.00 0.00 38 1016.7
20260506224948 52 301 9.6 13.9 0.00 0.00 0.00 38 1016.8
20260506224446 53 310 7.8 7.8 0.00 0.00 0.00 38 1016.8
20260506223942 52 338 7.0 8.7 0.00 0.00 0.00 38 1016.7
20260506223438 52 359 6.1 8.7 0.00 0.00 0.00 38 1016.8
20260506222935 53 279 7.8 11.3 0.00 0.00 0.00 36 1016.8
20260506222431 52 338 4.3 7.8 0.00 0.00 0.00 37 1016.9
20260506221928 53 348 13.0 15.6 0.00 0.00 0.00 37 1016.7
20260506221425 53 298 10.4 13.0 0.00 0.00 0.00 36 1017.0
20260506220924 53 258 7.0 9.6 0.00 0.00 0.00 35 1016.9
20260506220419 53 308 10.4 13.0 0.00 0.00 0.00 35 1016.8
20260506215916 53 295 5.2 7.0 0.00 0.00 0.00 36 1016.7
20260506215412 53 299 5.2 6.1 0.00 0.00 0.00 36 1016.7
20260506214908 53 321 10.4 12.2 0.00 0.00 0.00 36 1016.7
20260506214405 54 321 6.1 7.0 0.00 0.00 0.00 35 1016.7
20260506213902 53 314 4.3 7.0 0.00 0.00 0.00 37 1017.0
20260506213359 52 9 7.0 9.6 0.00 0.00 0.00 38 1016.8
20260506212852 53 309 9.6 11.3 0.00 0.00 0.00 36 1017.0
20260506212347 52 316 3.5 7.0 0.00 0.00 0.00 37 1016.8
20260506211842 52 296 7.8 8.7 0.00 0.00 0.00 38 1016.8
20260506211338 52 349 7.0 9.6 0.00 0.00 0.00 38 1016.9
20260506210836 52 248 8.7 11.3 0.00 0.00 0.00 38 1016.8
20260506210333 53 301 9.6 13.0 0.00 0.00 0.00 37 1016.8
20260506205830 53 280 7.0 9.6 0.00 0.00 0.00 36 1017.0
20260506205325 52 301 5.2 8.7 0.00 0.00 0.00 37 1017.0
20260506204822 52 314 8.7 8.7 0.00 0.00 0.00 39 1017.2
20260506204319 52 339 6.1 7.8 0.00 0.00 0.00 37 1017.2
20260506203817 51 352 3.5 6.1 0.00 0.00 0.00 38 1017.5
20260506203314 51 310 8.7 12.2 0.00 0.00 0.00 38 1017.2
20260506202811 52 343 11.3 13.0 0.00 0.00 0.00 37 1017.2
20260506202308 52 228 7.8 11.3 0.00 0.00 0.00 36 1017.2
20260506201804 52 306 10.4 12.2 0.00 0.00 0.00 38 1017.1
20260506201302 53 298 6.1 7.0 0.00 0.00 0.00 37 1017.2
20260506200759 53 8 8.7 14.8 0.00 0.00 0.00 36 1017.3
20260506200255 53 284 9.6 14.8 0.00 0.00 0.00 35 1017.3